www.pogodaiklimat.ru

Погода и климат >> Архив погоды >> Россия >> Красноярский край >> Хатанга


АРХИВ ПОГОДЫ в Хатанге

Время (UTC), дата Ветер
(напр.,м/с)
 
Видим.   Явления Облачность Т
(С)
Тd
(С)
f
(%)
Тe
(С)
Тes
(С)
Комфортность P
(гПа)
Po
(гПа)
Тmin
(С)
Tmax
(С)
R
(мм)
R24
(мм)
S
(см)
00 14.01 В 3 20 км 4/0
[Ci fib]
-31.3 -35.2 68 -41 -41 опасность
обморожения
1019.3 1014.6 15
03 14.01 В 4 20 км 4/0
[Ac trans Ci fib]
-32.7 -35.1 79 -45 -45 опасность
обморожения
1018.5 1013.9
06 14.01 В 4 20 км 8/5 360 м
[Sc Ac trans]
-30.8 -33.2 79 -42 -42 опасность
обморожения
1018.3 1013.6
09 14.01 В 4 20 км 8/5 360 м
[Sc Ac trans]
-30.8 -33.2 79 -42 -42 опасность
обморожения
1018.3 1013.6
12 14.01 ЮВ 4 20 км позёмок 8/0
[Ac trans Ci fib]
-29.6 -33.3 70 -41 -41 опасность
обморожения
1018.4 1013.8 -29.3
15 14.01 ЮВ 6 20 км позёмок 8/0
[Ac trans Ci fib]
-29.3 -32.4 74 -43 -43 опасность
обморожения
1018.4 1013.7
18 14.01 ЮВ 6 20 км позёмок 6/0
[Ac trans Ci fib]
-29.1 -32.2 74 -42 -42 опасность
обморожения
1018.0 1013.3
21 14.01 ЮВ 5 н/о н/о -28.4 -32.1 70 -41 -41 опасность
обморожения
1017.1 1012.6
00 15.01 ЮВ 6 10 км снежные кристаллы {метель} 10/4 420 м
[Sc Cs]
-27.7 -30.8 75 -41 -41 опасность
обморожения
1016.2 1011.6 -29.4 0.0 15
06 15.01 Ю 7 10 км слаб. снег {метель} 10/3 300 м
[Sc As op]
-26.9 -30.0 75 -41 -41 опасность
обморожения
1012.8 1008.2
09 15.01 ЮВ 5 10 км слаб. снег {метель} 10/3 300 м
[Sc As op]
-27.1 -30.1 76 -39 -39 опасность
обморожения
1011.8 1007.2
12 15.01 ЮВ 3 10 км слаб. снег {метель} 10/3 360 м
[Sc As op]
-28.4 -31.5 75 -38 -38 опасность
обморожения
1010.3 1005.7 -26.6 0.2
15 15.01 В 2 20 км {снег} 8/4 400 м
[Sc Ac trans Ci fib]
-29.8 -33.5 70 -37 -37 опасность
обморожения
1007.5 1003.0
18 15.01 В 3 20 км {снег} 6/3 420 м
[Sc Ac trans Ci fib]
-31.0 -34.6 70 -41 -41 опасность
обморожения
1004.8 1000.3
21 15.01 В 4 20 км 8/4 330 м
[Sc Ac trans Ci fib]
-30.9 -34.7 69 -42 -42 опасность
обморожения
1002.1 997.6
00 16.01 В 4 20 км 8/0
[Ac trans Ci fib]
-27.2 -30.8 71 -38 -38 опасность
обморожения
999.6 995.2 -31.1
03 16.01 В 4 20 км 9/4 480 м
[Sc Ac trans Ci fib]
-24.9 -28.4 73 -35 -35 опасность
обморожения
998.0 993.5
06 16.01 СВ 4 20 км 9/4 330 м
[Sc Ac trans Ci fib]
-25.1 -27.5 80 -35 -35 опасность
обморожения
997.3 992.8
09 16.01 СВ 4 10 км слаб. снег 10/3 360 м
[Sc As op]
-26.4 -29.7 74 -37 -37 опасность
обморожения
997.8 993.3
12 16.01 СВ 5 10 км слаб. снег 10/3 420 м
[Sc As op]
-29.1 -31.5 80 -41 -41 опасность
обморожения
999.1 994.5 -25.0 0.0
15 16.01 СВ 4 10 км слаб. снег 10/4 360 м
[Sc As op]
-31.7 -33.4 85 -43 -43 опасность
обморожения
1000.8 996.2
18 16.01 С 3 10 км слаб. снег 10/4 300 м
[Sc As op]
-31.1 -32.8 85 -41 -41 опасность
обморожения
1003.0 998.4
21 16.01 З 2 10 км слаб. снег 10/3 300 м
[Sc As op]
-29.5 -30.7 89 -37 -37 опасность
обморожения
1005.0 1000.4
00 17.01 З 4 10 км слаб. снег 10/3 330 м
[Sc As op]
-31.3 -33.0 85 -43 -43 опасность
обморожения
1006.8 1002.2 -31.7 0.5 16
03 17.01 З 4 10 км слаб. снег 10/5 360 м
[Sc As op]
-31.4 -35.7 66 -43 -43 опасность
обморожения
1008.5 1003.9
06 17.01 З 4 10 км слаб. снег 10/4 540 м
[Sc Ac trans Cs]
-32.2 -34.6 79 -44 -44 опасность
обморожения
1010.2 1005.5
09 17.01 З 3 10 км снежные кристаллы 10/3 300 м
[Sc Ac trans Cs]
-32.4 -36.5 67 -43 -43 опасность
обморожения
1012.2 1007.6
12 17.01 ЮЗ 3 20 км {снег} 6/0
[Ac trans Ci fib]
-33.9 -36.8 75 -44 -44 опасность
обморожения
1014.2 1009.4 -31.3 0.0
15 17.01 ЮЗ 4 20 км 3/0
[Ci fib]
-34.6 -37.4 76 -47 -47 опасность
обморожения
1015.3 1010.5
18 17.01 Ю 3 20 км ясно -34.7 -37.7 74 -45 -45 опасность
обморожения
1016.6 1011.8
21 17.01 ЮВ 3 н/о н/о -32.7 -36.6 68 -43 -43 опасность
обморожения
1016.0 1011.4
00 18.01 ЮВ 2 20 км 3/0
[Ci fib]
-32.2 -36.1 68 -40 -40 опасность
обморожения
1015.3 1010.6 -34.7 16
03 18.01 ЮВ 2 20 км 3/0
[Ci fib]
-32.2 -36.1 68 -40 -40 опасность
обморожения
1015.3 1010.6 -34.7 16
06 18.01 ЮВ 5 20 км 9/0
[Ac trans Ci fib]
-28.6 -31.6 75 -41 -41 опасность
обморожения
1009.9 1005.2
09 18.01 ЮВ 7 20 км позёмок 8/0
[Ac trans Ci fib]
-22.5 -25.7 75 -35 -35 опасность
обморожения
1005.9 1001.4
12 18.01 ЮВ 4 10 км снежные кристаллы {метель} 10/0
[Cs]
-19.4 -22.7 75 -28 -28 тепло 1002.9 998.4 -19.4 0.0
15 18.01 ЮВ 3 10 км снежные кристаллы 10/0
[Ac trans Cs]
-19.5 -23.7 69 -27 -27 тепло 1000.5 996.1
18 18.01 ЮВ 3 10 км слаб. снег 10/0
[As op]
-18.4 -22.1 73 -26 -26 тепло 999.2 994.9
21 18.01 Ю 2 10 км слаб. ливневой снег 9/5 500 м
[Cb cap Ac und]
-17.0 -20.2 76 -22 -22 тепло 998.7 994.4
00 19.01 З 1 10 км слаб. ливневой снег 9/9 240 м
[Cb cap]
-16.9 -19.3 82 -20 -20 тепло 999.4 995.0 0.6 0
03 19.01 10 км слаб. ливневой снег 9/9 210 м
[Cb cap]
-17.0 -19.4 82 1000.3 996.0
06 19.01 штиль 0 20 км в посл. час ливневой снег 6/3 300 м
[Sc Ac trans]
-18.6 -20.5 85 -19 -19 тепло 1000.3 995.9
09 19.01 В 3 10 км слаб. ливневой снег 10/9 240 м
[Cb cap]
-19.7 -22.3 80 -27 -27 тепло 1000.5 996.2
12 19.01 СВ 4 10 км слаб. ливневой снег 10/9 210 м
[Cb cap]
-25.1 -28.3 75 -35 -35 опасность
обморожения
999.9 995.5 -16.7 0.6
15 19.01 СВ 5 10 км снежные кристаллы 9/4 360 м
[Sc Cs]
-27.0 -30.3 73 -39 -39 опасность
обморожения
998.2 993.8
18 19.01 СВ 5 20 км {ливн. осадки, снег} 4/0
[Ci fib]
-26.6 -29.7 75 -38 -38 опасность
обморожения
996.8 992.3
21 19.01 СВ 4 20 км 4/0
[Ci fib]
-28.7 -32.2 72 -40 -40 опасность
обморожения
996.3 991.8
00 20.01 штиль 0 50 км ?/? -27.4 -30.4 76 -27 -27 тепло 996.0 991.5 -28.8 0.2 18
03 20.01 СВ 4 10 км слаб. снег 10/4 420 м
[Sc Cs]
-28.9 -32.0 74 -40 -40 опасность
обморожения
996.4 991.8 -28.9
06 20.01 СВ 4 10 км слаб. снег 10/5 300 м
[Sc Cs]
-29.9 -33.0 74 -41 -41 опасность
обморожения
997.1 992.5
09 20.01 СВ 6 10 км снежные кристаллы {метель} 10/4 300 м
[Sc Cs]
-32.6 -35.5 75 -47 -47 опасность
обморожения
998.8 994.2
12 20.01 С 6 10 км снежные кристаллы {метель} 10/4 330 м
[Sc Cs]
-33.0 -36.0 74 -47 -47 опасность
обморожения
1000.7 996.1 -27.4 0.0
15 20.01 С 3 10 км слаб. снег 10/5 400 м
[Sc As op]
-33.5 -37.4 68 -44 -44 опасность
обморожения
1003.0 998.4
18 20.01 СЗ 2 10 км слаб. снег 10/4 330 м
[Sc As op]
-33.0 -36.9 68 -41 -41 опасность
обморожения
1005.1 1000.5

 

Местоположение метеостанции Хатанга (Красноярский край, Россия): широта 71.98 долгота 102.47 высота над уровнем моря 33 м.

В архиве по умолчанию представлена погода в Хатанге за последнюю неделю. Архивные данные за месяц целиком и за предыдущие месяцы, начиная с января 2011 года, Вы можете получить, выбрав интересующий диапазон дат из раскрывающегося списка и нажав кнопку "Ввод!".


*Определитесь, кто Вы:
робот инопланетянин человек

Внимание! Время в таблицах - всемирное. Для получения местного времени необходимо прибавить поправку, которая равна 7 ч.

Смотрите также архив погоды в соседних городах и на ближайших метеорологических станциях:

Погода в Волочанке (Красноярский край, Россия) (303 км)
Погода в Анабаре (Якутия, Россия) (391 км)
Погода в Саскылахе (Якутия, Россия) (396 км)
Погода на Острове Преображения (Якутия, Россия) (447 км)
Погода в Джалинде (Якутия, Россия) (460 км)
Погода в Крестах Таймырских (Красноярский край, Россия) (462 км)
Погода в Оленеке (Якутия, Россия) (537 км)
Погода на Мысе Стерлегова (Красноярский край, Россия) (568 км)
Погода в Ярольине (Якутия, Россия) (587 км)
Погода на Усть-Оленеке (Якутия, Россия) (589 км)

Пояснения к столбцам:

Ветер - указаны скорость ветра в м/с - средняя за 10 мин, порывы в срок и между сроками (в фигурных скобках) и направление, откуда дует ветер: С - северный, СВ - северо-восточный, В - восточный, ЮВ - юго-восточный, Ю - южный, ЮЗ - юго-западный, З - западный, СЗ - северо-западный.
Видимость - горизонтальная дальность видимости в метрах или километрах. При видимости от 1 до 10 км при отсутствии осадков обычно наблюдается дымка, при ухудшении видимости до 1 км и менее - туман. В сухую погоду видимость может ухудшаться дымом, пылью или мглою.
Явления - указаны атмосферные явления, наблюдавшиеся в срок или в последний час перед сроком; фигурными скобками обозначены явления, наблюдавшиеся между сроками (за 1-3 часа до срока); квадратными скобками обозначены град или гололедные отложения с указанием их диаметра в мм.
Облачность - указаны через наклонную черту общая и нижняя облачность в баллах и высота нижней границы облаков в метрах; квадратными скобками обозначены формы облаков: Ci - перистые, Cs - перисто-слоистые, Cc - перисто-кучевые, Ac - высококучевые, As - высокослоистые, Sc - слоисто-кучевые, Ns - слоисто-дождевые, Cu - кучевые, Cb - кучево-дождевые. Подробнее классификацию облаков см. в Атласе облаков (PDF).
T - Температура воздуха - температура, измеренная на высоте 2 м над землей.
Td - Температура точки росы - температура, при понижении до которой содержащийся в воздухе водяной пар достигнет насыщения.
f - Относительная влажность воздуха - влажноcть воздуха, измеренная на высоте 2 м над землей.
Te - Эффективная температура - температура, которую ощущает одетый по сезону человек в тени. Характеристика душности погоды. При расчете учитывается влияние влажности воздуха и скорости ветра на теплоощущения человека.
Tes - Эффективная температура на солнце - температура, которую ощущает человек, с поправкой на солнечный нагрев. Характеристика знойности погоды. Зависит от высоты солнца над горизонтом, облачности и скорости ветра. Ночью, в пасмурную погоду, а также при ветре 12 м/с и более поправка равна нулю.
P - Атмосферное давление - приведенное к уровню моря атмосферное давление.
Po - Атмосферное давление - измеренное на уровне метеостанции атмосферное давление.
Tmin - Минимальная температура - минимум температуры воздуха на высоте 2 м над землей.
Tmax - Максимальная температура - максимум температуры воздуха на высоте 2 м над землей.
R - Количество осадков - Количество выпавших осадков за период времени, мм. При наведении курсора мыши на число - период времени, за который выпало указанное количество осадков.
R24 - Количество осадков - Количество выпавших осадков за 24 часа, мм.
S - Снежный покров - Высота снежного покрова, см. При наведении курсора мыши на число - состояние снежного покрова и степень покрытия местности в баллах.